Terminal Aerodrome Forecast
Issued by NWS

Home | Current Version | Previous Version | Text Only | Print | Product List | Glossary On
Versions: 1 2 3 4 5 6 7 8 9 10 11 12 13 14 15 16 17 18
000
FTUS42 KKEY 051459 AAA
TAFMTH
TAF AMD
KMTH 051459Z 0515/0612 14006G15KT P6SM FEW020
     FM052000 15007KT P6SM FEW025
     FM060000 10005KT P6SM FEW020=

USA.gov is the U.S. government's official web portal to all federal, state and local government web resources and services.